DW8873 Weather Reports


Display with metric or nautical units.
time (UTC)temp
F
wind
direction
speed
MPH
gust
MPH
rain 1hr
in
rain 24hr
in
rain mn
in
humidity
%
barometer
mb
20260506050441 70 68 3.0 6.0 0.00 0.00 0.00 65 1016.0
20260506044407 70 50 3.0 6.0 0.00 0.00 0.00 64 1016.0
20260506043405 70 25 1.0 6.0 0.00 0.00 0.00 65 1016.0
20260506042404 71 104 2.0 4.0 0.00 0.00 0.00 63 1016.0
20260506041402 71 111 1.0 3.0 0.00 0.00 0.00 62 1016.3
20260506040329 72 113 2.0 3.0 0.00 0.00 0.00 60 1016.3
20260506035327 72 120 2.0 3.0 0.00 0.00 0.00 57 1016.3
20260506034326 73 141 1.0 3.0 0.00 0.00 0.00 57 1016.7
20260506033324 73 141 2.0 3.0 0.00 0.00 0.00 56 1016.7
20260506032323 73 127 0.0 3.0 0.00 0.00 0.00 57 1016.7
20260506031321 73 124 2.0 3.0 0.00 0.00 0.00 56 1017.0
20260506030320 74 120 1.0 3.0 0.00 0.00 0.00 53 1017.0
20260506025247 74 17 1.0 3.0 0.00 0.00 0.00 54 1017.4
20260506024246 73 17 1.0 3.0 0.00 0.00 0.00 56 1017.3
20260506023244 73 224 0.0 2.0 0.00 0.00 0.00 55 1017.7
20260506022211 72 224 1.0 2.0 0.00 0.00 0.00 55 1018.0
20260506021210 72 222 1.0 2.0 0.00 0.00 0.00 55 1018.0
20260506020208 73 222 0.0 2.0 0.00 0.00 0.00 53 1018.4
20260506015207 73 148 1.0 3.0 0.00 0.00 0.00 52 1018.4
20260506014205 73 147 1.0 3.0 0.00 0.00 0.00 52 1018.7
20260506013204 72 204 1.0 4.0 0.00 0.00 0.00 53 1018.7
20260506012131 70 242 1.0 3.0 0.00 0.00 0.00 56 1019.0
20260506011129 70 227 1.0 2.0 0.00 0.00 0.00 55 1019.0
20260506010128 69 263 1.0 2.0 0.00 0.00 0.00 57 1019.4
20260506005126 68 261 1.0 3.0 0.00 0.00 0.00 59 1019.4
20260506004124 67 249 1.0 3.0 0.00 0.00 0.00 60 1019.7
20260506003123 66 252 1.0 2.0 0.00 0.00 0.00 62 1019.7
20260506002020 66 252 1.0 2.0 0.00 0.00 0.00 62 1019.7
20260506001018 66 252 1.0 3.0 0.00 0.00 0.00 62 1020.0
20260506000016 67 254 2.0 3.0 0.00 0.00 0.00 62 1020.0
20260505235015 66 255 1.0 3.0 0.00 0.00 0.00 63 1020.0
20260505234013 65 269 1.0 3.0 0.00 0.00 0.00 64 1020.0
20260505233011 65 261 1.0 3.0 0.00 0.00 0.00 66 1020.0
20260505231939 63 260 1.0 6.0 0.00 0.00 0.00 70 1020.0
20260505230938 62 233 1.0 6.0 0.00 0.00 0.00 72 1020.0
20260505225936 61 262 1.0 3.0 0.00 0.00 0.00 72 1020.0
20260505224935 61 268 1.0 3.0 0.00 0.00 0.00 72 1020.0
20260505223933 60 330 1.0 3.0 0.00 0.00 0.00 74 1020.0
20260505222931 60 345 1.0 3.0 0.00 0.00 0.00 75 1020.3
20260505221930 58 321 1.0 2.0 0.00 0.00 0.00 80 1020.3
20260505220857 56 322 1.0 1.0 0.00 0.00 0.00 83 1020.3
20260505215855 56 322 0.0 0.0 0.00 0.00 0.00 82 1020.3
20260505214822 56 322 0.0 1.0 0.00 0.00 0.00 82 1020.0
20260505213821 55 322 0.0 1.0 0.00 0.00 0.00 84 1020.3
20260505212820 55 322 0.0 1.0 0.00 0.00 0.00 84 1020.0
20260505211818 54 322 0.0 1.0 0.00 0.00 0.00 85 1020.0
20260505210817 53 322 0.0 1.0 0.00 0.00 0.00 87 1020.0
20260505205815 53 322 0.0 1.0 0.00 0.00 0.00 85 1020.0
20260505204742 53 322 0.0 2.0 0.00 0.00 0.00 85 1020.0
20260505203741 53 322 0.0 3.0 0.00 0.00 0.00 85 1020.0
20260505202738 53 322 0.0 3.0 0.00 0.00 0.00 86 1020.0
20260505201737 53 322 0.0 1.0 0.00 0.00 0.00 86 1019.7
20260505200704 53 322 0.0 1.0 0.00 0.00 0.00 86 1019.7
20260505195702 53 321 1.0 2.0 0.00 0.00 0.00 85 1019.7
20260505194700 53 321 1.0 2.0 0.00 0.00 0.00 85 1019.7
20260505193659 53 321 0.0 2.0 0.00 0.00 0.00 85 1019.7
20260505192657 53 321 0.0 2.0 0.00 0.00 0.00 84 1019.7
20260505191655 54 326 1.0 2.0 0.00 0.00 0.00 83 1019.7
20260505190622 54 301 1.0 2.0 0.00 0.00 0.00 83 1019.7
20260505185621 54 301 0.0 1.0 0.00 0.00 0.00 81 1019.7
20260505184548 54 301 0.0 1.0 0.00 0.00 0.00 81 1019.7
20260505183546 54 301 0.0 2.0 0.00 0.00 0.00 82 1019.7
20260505182544 55 301 0.0 2.0 0.00 0.00 0.00 81 1019.7
20260505181542 55 296 0.0 1.0 0.00 0.00 0.00 81 1019.7
20260505180510 55 296 1.0 1.0 0.00 0.00 0.00 80 1019.4
20260505175508 55 296 1.0 1.0 0.00 0.00 0.00 81 1019.4
20260505174435 55 296 1.0 1.0 0.00 0.00 0.00 81 1019.4
20260505173402 55 296 0.0 3.0 0.00 0.00 0.00 80 1019.4
20260505172401 55 296 1.0 3.0 0.00 0.00 0.00 80 1019.7
20260505171257 56 294 1.0 2.0 0.00 0.00 0.00 80 1019.7
20260505170255 56 250 1.0 2.0 0.00 0.00 0.00 79 1019.7
20260505165151 56 249 1.0 2.0 0.00 0.00 0.00 78 1019.7
20260505164150 56 248 0.0 1.0 0.00 0.00 0.00 79 1019.7
20260505163148 56 248 0.0 2.0 0.00 0.00 0.00 80 1019.7
20260505162116 56 248 0.0 2.0 0.00 0.00 0.00 80 1019.7
20260505161114 56 248 0.0 1.0 0.00 0.00 0.00 80 1019.7
20260505160112 57 248 0.0 2.0 0.00 0.00 0.00 77 1019.7
20260505153027 56 241 0.0 2.0 0.00 0.00 0.00 79 1020.1
20260505152025 56 241 1.0 2.0 0.00 0.00 0.00 82 1020.1
20260505150953 56 241 1.0 1.0 0.00 0.00 0.00 81 1020.1
20260505124755 57 131 0.0 2.0 0.00 0.00 0.00 87 1020.4
20260505123754 57 130 1.0 2.0 0.00 0.00 0.00 87 1020.4
20260505122721 57 130 0.0 1.0 0.00 0.00 0.00 87 1020.4
20260505121719 57 130 0.0 0.0 0.00 0.00 0.00 87 1020.4
20260505120646 57 130 0.0 0.0 0.00 0.00 0.00 86 1020.4
20260505115644 57 130 0.0 0.0 0.00 0.00 0.00 85 1020.4
20260505114643 58 130 0.0 0.0 0.00 0.00 0.00 85 1020.4
20260505113642 58 130 0.0 0.0 0.00 0.00 0.00 85 1020.4
20260505112609 58 130 0.0 0.0 0.00 0.00 0.00 84 1020.4
20260505111608 58 130 0.0 0.0 0.00 0.00 0.00 84 1020.4
20260505110606 58 130 0.0 1.0 0.00 0.00 0.00 84 1020.4
20260505101558 60 130 0.0 1.0 0.00 0.00 0.00 79 1019.7
20260505100557 60 130 0.0 2.0 0.00 0.00 0.00 78 1019.7
20260505095524 60 130 0.0 2.0 0.00 0.00 0.00 77 1019.7
20260505094349 61 130 0.0 2.0 0.00 0.00 0.00 76 1019.3
20260505093348 61 130 0.0 2.0 0.00 0.00 0.00 74 1019.3
20260505092346 62 127 0.0 1.0 0.00 0.00 0.00 72 1019.0
20260505091313 62 127 1.0 1.0 0.00 0.00 0.00 69 1019.0
20260505090210 63 127 0.0 0.0 0.00 0.00 0.00 67 1018.7
20260505085136 64 127 0.0 2.0 0.00 0.00 0.00 65 1018.7
20260505084134 65 127 0.0 2.0 0.00 0.00 0.00 63 1018.7
20260505083133 66 127 0.0 1.0 0.00 0.00 0.00 59 1018.7
20260505082131 66 127 0.0 2.0 0.00 0.00 0.00 55 1018.3
20260505081129 67 127 1.0 3.0 0.00 0.00 0.00 53 1018.3
20260505080128 67 127 2.0 4.0 0.00 0.00 0.00 52 1018.0
20260505075126 67 119 2.0 5.0 0.00 0.00 0.00 52 1018.0
20260505074125 67 114 1.0 6.0 0.00 0.00 0.00 53 1017.7
20260505073123 68 112 2.0 3.0 0.00 0.00 0.00 54 1017.7
20260505072122 68 120 1.0 4.0 0.00 0.00 0.00 53 1017.3
20260505071121 69 119 2.0 5.0 0.00 0.00 0.00 53 1017.3
20260505070119 69 143 1.0 8.0 0.00 0.00 0.00 52 1017.0
20260505065117 70 126 1.0 8.0 0.00 0.00 0.00 52 1017.0
20260505064045 71 135 2.0 6.0 0.00 0.00 0.00 52 1016.7
20260505063043 71 181 3.0 4.0 0.00 0.00 0.00 49 1016.3
20260505062041 72 208 1.0 2.0 0.00 0.00 0.00 45 1016.3
20260505061040 72 207 1.0 2.0 0.00 0.00 0.00 45 1016.3
20260505060038 72 204 1.0 3.0 0.00 0.00 0.00 43 1016.3